Tracking 19562 objects as of 21-Mar-2019
HD Live streaming from Space Station
objects crossing your sky now

SOLRAD 7A

Track SOLRAD 7A now!
10-day predictions
SOLRAD 7A is classified as:


NORAD ID: 730
Int'l Code: 1964-001D
Perigee: 905.4 km
Apogee: 926.9 km
Inclination: 69.9 °
Period: 103.2 minutes
Semi major axis: 7287 km
RCS: 0.4496 m2 (medium)
Launch date: January 11, 1964
Source: United States (US)
Launch site: AIR FORCE WESTERN TEST RANGE (AFWTR)
aabbcc
Your satellite tracking list
Your tracking list is empty




NASA's NSSDC Master Catalog

Two Line Element Set (TLE):
1   730U 64001D   19079.77868449 -.00000022  00000-0  23109-4 0  9994
2   730  69.9065 195.3815 0014755 201.0692 312.6140 13.95609180692085
Source of the keplerian elements: AFSPC